QPF
0.00 0.00 0.00 0.00 0.00 0.00 0.00 0.00 0.00 0.00 0.00 0.00 0.00 0.00 0.00 0.00 0.00 0.00 0.00 0.00 0.00 0.00 0.00 0.00 0.00 0.00 0.00 0.00 0.00 0.00 0.00 0.00 0.00 0.00 0.00 0.00 0.00 0.00 0.00 0.00 0.00 0.00 0.00 0.00 0.00 0.00 0.00
0.00 0.00 0.00 0.00 0.00 0.00 0.00 0.00 0.00 0.00 0.00 0.00 0.00 0.00 0.00 0.00 0.00 0.00 0.00 0.00 0.00 0.00 0.00 0.00 0.00 0.00 0.00 0.00 0.00 0.00 0.00 0.00 0.00 0.00 0.00 0.00 0.00 0.00 0.00 0.00 0.00 0.00 0.00 0.00 0.00 0.00 0.00
0.00 0.00 0.00 0.00 0.00 0.00 0.00 0.00 0.00 0.00 0.00 0.00 0.00 0.00 0.00 0.00 0.00 0.00 0.00 0.00 0.00 0.00 0.00 0.00 0.00 0.00 0.00 0.00 0.00 0.00 0.00 0.00 0.00 0.00 0.00 0.00 0.00 0.00 0.00 0.00 0.00 0.00 0.00 0.00 0.00 0.00 0.00
0.00 0.00 0.00 0.00 0.00 0.00 0.00 0.00 0.00 0.00 0.00 0.00 0.00 0.00 0.00 0.00 0.00 0.00 0.00 0.00 0.00 0.00 0.00 0.00 0.00 0.00 0.00 0.00 0.00 0.00 0.00 0.00 0.00 0.00 0.00 0.00 0.00 0.00 0.00 0.00 0.00 0.00 0.00 0.00 0.00 0.00 0.00
0.00 0.00 0.00 0.00 0.00 0.00 0.00 0.00 0.00 0.00 0.00 0.00 0.00 0.00 0.00 0.00 0.00 0.00 0.00 0.00 0.00 0.00 0.00 0.00 0.00 0.00 0.00 0.00 0.00 0.00 0.00 0.00 0.00 0.00 0.00 0.00 0.00 0.00 0.00 0.00 0.00 0.00 0.00 0.00 0.00 0.00 0.00
0.00 0.00 0.00 0.00 0.00 0.00 0.00 0.00 0.00 0.00 0.00 0.00 0.00 0.00 0.00 0.00 0.00 0.00 0.00 0.00 0.00 0.00 0.00 0.00 0.00 0.00 0.00 0.00 0.00 0.00 0.00 0.00 0.00 0.00 0.00 0.00 0.00 0.00 0.00 0.00 0.00 0.00 0.00 0.00 0.00 0.00 0.00
0.00 0.00 0.00 0.00 0.00 0.00 0.00 0.00 0.00 0.00 0.00 0.00 0.00 0.00 0.00 0.00 0.00 0.00 0.00 0.00 0.00 0.00 0.00 0.00 0.00 0.00 0.00 0.00 0.00 0.00 0.00 0.00 0.00 0.00 0.00 0.00 0.00 0.00 0.00 0.00 0.00 0.00 0.00 0.00 0.00 0.00 0.00
0.00 0.00 0.00 0.00 0.00 0.00 0.00 0.00 0.00 0.00 0.00 0.00 0.00 0.00 0.00 0.00 0.00 0.00 0.00 0.00 0.00 0.00 0.00 0.00 0.00 0.00 0.00 0.00 0.00 0.00 0.00 0.00 0.00 0.00 0.00 0.00 0.00 0.00 0.00 0.00 0.00 0.00 0.00 0.00 0.00 0.00 0.00
0.00 0.00 0.00 0.00 0.00 0.00 0.00 0.00 0.00 0.00 0.00 0.00 0.00 0.00 0.00 0.00 0.00 0.00 0.00 0.00 0.00 0.00 0.00 0.00 0.00 0.00 0.00 0.00 0.00 0.00 0.00 0.00 0.00 0.00 0.00 0.00 0.00 0.00 0.00 0.00 0.00 0.00 0.00 0.00 0.00 0.00 0.00
0.00 0.00 0.00 0.00 0.00 0.00 0.00 0.00 0.00 0.00 0.00 0.00 0.00 0.00 0.00 0.00 0.00 0.00 0.00 0.00 0.00 0.00 0.00 0.00 0.00 0.00 0.00 0.00 0.00 0.00 0.00 0.00 0.00 0.00 0.00 0.00 0.00 0.00 0.00 0.00 0.00 0.00 0.00 0.00 0.00 0.00 0.00
0.00 0.00 0.00 0.00 0.00 0.00 0.00 0.00 0.00 0.00 0.00 0.00 0.00 0.00 0.00 0.00 0.00 0.00 0.00 0.00 0.00 0.00 0.00 0.00 0.00 0.00 0.00 0.00 0.00 0.00 0.00 0.00 0.00 0.00 0.00 0.00 0.00 0.00 0.00 0.00 0.00 0.00 0.00 0.00 0.00 0.00 0.00
0.00 0.00 0.00 0.00 0.00 0.00 0.00 0.00 0.00 0.00 0.00 0.00 0.00 0.00 0.00 0.00 0.00 0.00 0.00 0.00 0.00 0.00 0.00 0.00 0.00 0.00 0.00 0.00 0.00 0.00 0.00 0.00 0.00 0.00 0.00 0.00 0.00 0.00 0.00 0.00 0.00 0.00 0.00 0.00 0.00 0.00 0.00
0.00 0.00 0.00 0.00 0.00 0.00 0.00 0.00 0.00 0.00 0.00 0.00 0.00 0.00 0.00 0.00 0.00 0.00 0.00 0.00 0.00 0.00 0.00 0.00 0.00 0.00 0.00 0.00 0.00 0.00 0.00 0.00 0.00 0.00 0.00 0.00 0.00 0.00 0.00 0.00 0.00 0.01 0.03 0.05 0.01 0.00 0.00
0.00 0.00 0.00 0.00 0.00 0.00 0.00 0.00 0.00 0.00 0.00 0.00 0.00 0.00 0.00 0.00 0.00 0.00 0.00 0.00 0.00 0.00 0.00 0.00 0.00 0.00 0.00 0.00 0.00 0.00 0.00 0.00 0.00 0.00 0.00 0.00 0.01 0.03 0.01 0.00 0.00 0.01 0.02 0.05 0.07 0.00 0.00
0.00 0.00 0.00 0.00 0.00 0.00 0.00 0.00 0.00 0.00 0.00 0.00 0.00 0.00 0.00 0.00 0.00 0.00 0.00 0.00 0.00 0.00 0.00 0.00 0.00 0.00 0.00 0.00 0.00 0.00 0.00 0.00 0.00 0.00 0.00 0.01 0.02 0.03 0.08 0.07 0.02 0.06 0.04 0.01 0.06 0.05 0.01
0.00 0.00 0.00 0.00 0.00 0.00 0.00 0.00 0.00 0.00 0.00 0.00 0.00 0.00 0.00 0.00 0.00 0.00 0.00 0.00 0.00 0.00 0.00 0.00 0.00 0.00 0.00 0.01 0.00 0.00 0.00 0.00 0.00 0.00 0.00 0.00 0.02 0.05 0.06 0.08 0.08 0.07 0.04 0.04 0.10 0.09 0.02
0.00 0.00 0.00 0.00 0.00 0.00 0.00 0.00 0.00 0.00 0.00 0.00 0.00 0.00 0.00 0.00 0.00 0.00 0.00 0.00 0.00 0.00 0.00 0.00 0.00 0.00 0.01 0.01 0.00 0.00 0.00 0.00 0.00 0.00 0.00 0.00 0.01 0.00 0.01 0.03 0.08 0.08 0.13 0.03 0.02 0.02 0.01
0.00 0.00 0.00 0.00 0.00 0.00 0.00 0.00 0.00 0.00 0.00 0.00 0.00 0.00 0.00 0.00 0.00 0.00 0.00 0.00 0.00 0.00 0.00 0.00 0.00 0.00 0.02 0.00 0.00 0.00 0.00 0.00 0.00 0.00 0.00 0.00 0.01 0.01 0.00 0.00 0.01 0.03 0.06 0.03 0.03 0.01 0.01
0.00 0.00 0.00 0.00 0.00 0.00 0.00 0.00 0.00 0.00 0.00 0.00 0.00 0.00 0.00 0.00 0.00 0.00 0.00 0.00 0.00 0.00 0.00 0.00 0.00 0.01 0.00 0.00 0.00 0.00 0.00 0.00 0.00 0.00 0.01 0.02 0.02 0.02 0.02 0.05 0.04 0.06 0.03 0.01 0.01 0.00 0.01
0.00 0.00 0.00 0.00 0.00 0.00 0.00 0.00 0.00 0.00 0.00 0.00 0.00 0.00 0.00 0.00 0.00 0.00 0.00 0.00 0.00 0.00 0.00 0.00 0.00 0.00 0.00 0.00 0.00 0.00 0.00 0.00 0.00 0.00 0.02 0.04 0.08 0.07 0.11 0.16 0.08 0.04 0.00 0.01 0.02 0.01 0.01
0.00 0.00 0.00 0.00 0.00 0.00 0.00 0.00 0.00 0.00 0.00 0.00 0.00 0.00 0.00 0.00 0.00 0.00 0.00 0.00 0.00 0.00 0.00 0.00 0.00 0.01 0.02 0.01 0.01 0.01 0.04 0.02 0.01 0.03 0.08 0.12 0.12 0.11 0.23 0.10 0.01 0.03 0.05 0.00 0.00 0.00 0.02
0.00 0.00 0.00 0.00 0.00 0.00 0.00 0.00 0.00 0.00 0.00 0.00 0.00 0.00 0.00 0.00 0.00 0.00 0.00 0.00 0.00 0.00 0.00 0.00 0.00 0.00 0.00 0.02 0.03 0.05 0.08 0.07 0.09 0.06 0.04 0.05 0.13 0.17 0.20 0.10 0.03 0.03 0.07 0.01 0.01 0.01 0.03
0.00 0.00 0.00 0.00 0.00 0.00 0.00 0.00 0.00 0.00 0.00 0.00 0.00 0.00 0.00 0.00 0.00 0.00 0.00 0.00 0.00 0.00 0.00 0.00 0.00 0.00 0.00 0.00 0.00 0.00 0.01 0.05 0.09 0.05 0.03 0.02 0.03 0.07 0.12 0.03 0.01 0.03 0.11 0.06 0.06 0.08 0.11
0.00 0.00 0.00 0.00 0.00 0.00 0.00 0.00 0.00 0.00 0.00 0.00 0.00 0.00 0.00 0.00 0.00 0.00 0.00 0.00 0.00 0.00 0.00 0.00 0.00 0.00 0.00 0.00 0.00 0.00 0.00 0.00 0.00 0.00 0.01 0.02 0.03 0.03 0.03 0.00 0.03 0.12 0.13 0.06 0.12 0.15 0.17
0.00 0.00 0.00 0.00 0.00 0.00 0.00 0.00 0.00 0.00 0.00 0.00 0.00 0.00 0.00 0.00 0.00 0.00 0.00 0.00 0.00 0.00 0.00 0.00 0.00 0.00 0.00 0.00 0.00 0.00 0.00 0.00 0.00 0.00 0.00 0.01 0.00 0.00 0.00 0.00 0.04 0.05 0.12 0.15 0.14 0.13 0.18
0.00 0.00 0.00 0.00 0.00 0.00 0.00 0.00 0.00 0.00 0.00 0.00 0.00 0.00 0.00 0.00 0.00 0.00 0.00 0.00 0.00 0.00 0.00 0.00 0.00 0.00 0.00 0.00 0.00 0.00 0.00 0.00 0.00 0.00 0.00 0.00 0.00 0.00 0.00 0.00 0.05 0.14 0.12 0.05 0.07 0.04 0.11
0.00 0.00 0.00 0.00 0.00 0.00 0.00 0.00 0.00 0.00 0.00 0.00 0.00 0.00 0.00 0.00 0.00 0.00 0.00 0.00 0.00 0.00 0.00 0.00 0.00 0.00 0.00 0.00 0.00 0.00 0.01 0.00 0.01 0.03 0.01 0.00 0.00 0.00 0.00 0.01 0.09 0.10 0.01 0.00 0.04 0.11 0.13
0.00 0.00 0.00 0.00 0.00 0.00 0.00 0.00 0.00 0.00 0.00 0.00 0.00 0.00 0.00 0.00 0.00 0.00 0.00 0.00 0.00 0.00 0.00 0.00 0.00 0.00 0.00 0.00 0.00 0.00 0.00 0.01 0.01 0.03 0.01 0.00 0.00 0.00 0.00 0.01 0.07 0.04 0.04 0.11 0.15 0.09 0.06
0.00 0.00 0.00 0.00 0.00 0.00 0.00 0.00 0.00 0.00 0.00 0.00 0.00 0.00 0.00 0.00 0.00 0.00 0.00 0.00 0.00 0.00 0.00 0.00 0.00 0.00 0.00 0.00 0.00 0.00 0.01 0.00 0.00 0.02 0.01 0.03 0.03 0.03 0.06 0.13 0.14 0.06 0.08 0.05 0.02 0.01 0.00
MSLP
1022.84 1022.79 1022.80 1022.67 1022.46 1022.25 1021.97 1021.71 1021.44 1021.24 1020.92 1020.61 1020.27 1019.98 1019.67 1019.34 1019.01 1018.65 1018.38 1018.19 1018.03 1017.93 1017.87 1017.77 1017.51 1017.30 1017.15 1016.59 1014.36 1012.81 1012.59 1012.67 1012.89 1012.96 1013.13 1013.25 1013.19 1013.19 1013.35 1013.41 1013.50 1013.66 1013.40 1012.93 1012.45 1012.44 1012.12
1022.98 1022.94 1022.85 1022.78 1022.51 1022.30 1022.00 1021.69 1021.40 1021.12 1020.80 1020.49 1020.14 1019.84 1019.51 1019.18 1018.82 1018.46 1018.18 1017.90 1017.73 1017.70 1017.72 1017.67 1017.41 1017.45 1017.42 1016.03 1013.46 1013.02 1013.08 1013.18 1013.21 1013.29 1013.19 1013.17 1013.00 1013.01 1013.23 1013.43 1013.62 1013.47 1013.36 1013.11 1012.66 1012.55 1012.20
1023.17 1023.00 1022.95 1022.80 1022.52 1022.34 1021.98 1021.63 1021.32 1021.01 1020.67 1020.35 1019.98 1019.67 1019.31 1018.96 1018.58 1018.25 1017.96 1017.58 1017.27 1017.29 1017.43 1017.44 1017.31 1017.32 1017.27 1015.02 1013.86 1013.70 1013.41 1013.36 1013.25 1013.23 1013.16 1012.96 1012.78 1012.94 1013.34 1013.65 1013.67 1013.64 1013.75 1013.26 1012.69 1012.45 1012.21
1023.17 1023.14 1022.97 1022.80 1022.57 1022.31 1021.91 1021.55 1021.20 1020.89 1020.54 1020.19 1019.85 1019.47 1019.10 1018.71 1018.30 1017.99 1017.64 1017.17 1016.65 1016.66 1016.98 1017.13 1017.19 1017.22 1016.18 1014.20 1013.91 1013.82 1013.58 1013.14 1012.72 1012.84 1013.00 1012.45 1012.71 1013.06 1013.45 1013.86 1014.15 1014.32 1014.33 1014.12 1012.92 1012.43 1012.08
1023.33 1023.27 1023.06 1022.79 1022.54 1022.22 1021.85 1021.50 1021.11 1020.78 1020.36 1020.02 1019.62 1019.21 1018.87 1018.48 1018.12 1017.68 1017.31 1016.75 1016.25 1015.88 1016.49 1016.83 1017.26 1017.20 1015.40 1013.85 1014.00 1013.73 1013.71 1013.37 1012.58 1012.30 1012.38 1012.34 1012.68 1013.31 1013.95 1014.61 1015.31 1015.21 1015.13 1014.58 1013.99 1012.77 1012.45
1023.59 1023.39 1023.12 1022.82 1022.54 1022.16 1021.80 1021.38 1021.00 1020.64 1020.24 1019.83 1019.40 1019.06 1018.73 1018.27 1017.95 1017.35 1017.02 1016.62 1016.44 1016.32 1016.70 1016.88 1016.98 1017.30 1015.42 1014.97 1014.25 1014.50 1013.60 1012.75 1012.50 1012.39 1012.62 1012.87 1013.27 1013.77 1014.51 1015.25 1015.22 1015.70 1015.55 1014.88 1014.31 1013.51 1012.95
1023.76 1023.48 1023.19 1022.85 1022.53 1022.15 1021.73 1021.30 1020.91 1020.52 1020.18 1019.74 1019.31 1018.97 1018.56 1018.11 1017.67 1017.04 1016.82 1016.86 1017.27 1016.98 1017.01 1017.25 1017.62 1017.33 1016.20 1015.22 1014.68 1014.62 1013.88 1012.96 1012.88 1013.10 1013.63 1013.51 1013.79 1014.04 1014.58 1014.77 1014.92 1015.23 1015.14 1014.78 1014.74 1014.07 1013.93
1023.81 1023.62 1023.22 1022.88 1022.54 1022.13 1021.70 1021.25 1020.86 1020.49 1020.07 1019.63 1019.21 1018.76 1018.32 1017.79 1017.41 1016.94 1017.04 1017.78 1018.22 1018.39 1018.02 1017.19 1017.20 1017.14 1016.15 1015.77 1015.38 1015.57 1014.82 1014.98 1014.99 1015.14 1014.91 1014.82 1013.91 1014.27 1014.14 1014.37 1014.61 1014.77 1014.69 1013.93 1014.48 1014.36 1014.25
1023.93 1023.62 1023.25 1022.94 1022.53 1022.09 1021.71 1021.25 1020.83 1020.40 1020.01 1019.62 1019.14 1018.65 1018.07 1017.66 1017.24 1017.43 1017.93 1018.22 1018.08 1018.13 1018.52 1017.60 1017.01 1016.97 1016.97 1016.29 1016.70 1016.53 1016.16 1016.11 1015.99 1015.93 1015.77 1015.55 1014.57 1014.50 1014.32 1014.20 1014.08 1013.86 1013.78 1013.96 1014.20 1014.09 1013.69
1023.93 1023.55 1023.28 1022.97 1022.54 1022.10 1021.77 1021.30 1020.79 1020.34 1019.99 1019.56 1019.15 1018.61 1017.82 1017.33 1017.59 1018.14 1018.01 1017.84 1017.92 1017.83 1018.37 1018.35 1017.75 1017.63 1017.33 1016.64 1016.85 1017.11 1016.93 1017.16 1016.90 1016.44 1016.40 1015.48 1014.41 1014.31 1014.11 1013.65 1013.30 1012.76 1012.89 1013.35 1013.54 1013.76 1013.58
1023.95 1023.61 1023.31 1023.00 1022.56 1022.18 1021.79 1021.24 1020.77 1020.34 1020.01 1019.55 1019.09 1018.65 1018.35 1017.79 1018.17 1018.18 1017.86 1017.65 1017.59 1018.04 1019.02 1019.29 1018.55 1017.81 1018.10 1018.41 1018.39 1017.72 1017.34 1017.32 1017.32 1017.15 1017.07 1015.31 1014.82 1014.65 1014.08 1013.28 1012.96 1011.95 1012.41 1012.55 1012.98 1012.99 1013.29
1023.97 1023.63 1023.39 1023.03 1022.60 1022.20 1021.68 1021.25 1020.69 1020.33 1019.99 1019.48 1018.99 1018.63 1018.37 1018.36 1018.61 1017.83 1017.67 1017.60 1018.08 1019.13 1020.22 1020.00 1019.15 1018.58 1018.68 1018.62 1018.53 1018.12 1017.90 1018.00 1017.73 1017.59 1016.70 1015.79 1015.05 1014.56 1013.28 1012.59 1012.38 1012.09 1012.32 1012.56 1013.00 1013.05 1012.67
1024.03 1023.73 1023.46 1023.09 1022.67 1022.16 1021.69 1021.21 1020.69 1020.31 1019.96 1019.39 1018.96 1018.57 1018.32 1018.54 1018.57 1017.64 1017.69 1018.26 1019.87 1021.43 1021.87 1020.92 1019.77 1019.34 1019.15 1018.95 1018.63 1018.70 1018.65 1018.68 1019.03 1018.79 1017.39 1015.83 1014.17 1013.10 1012.67 1011.95 1011.25 1011.50 1012.27 1012.79 1012.92 1012.55 1011.46
1024.09 1023.87 1023.59 1023.21 1022.68 1022.19 1021.71 1021.23 1020.74 1020.32 1019.88 1019.37 1019.01 1018.61 1018.49 1018.41 1018.03 1017.71 1018.24 1019.80 1022.25 1023.29 1022.35 1021.25 1020.33 1019.60 1019.65 1019.39 1019.35 1019.23 1019.21 1019.24 1019.06 1019.43 1018.48 1016.80 1014.66 1013.25 1012.16 1011.48 1010.03 1010.05 1011.47 1011.62 1011.64 1011.46 1010.69
1024.18 1024.00 1023.68 1023.23 1022.75 1022.28 1021.76 1021.26 1020.81 1020.25 1019.80 1019.48 1019.19 1019.30 1019.13 1018.65 1017.74 1017.78 1019.45 1021.99 1023.75 1023.06 1022.17 1021.34 1020.49 1019.91 1019.82 1019.91 1020.19 1019.84 1019.63 1019.54 1019.09 1018.90 1018.90 1017.27 1014.88 1012.99 1012.20 1011.33 1009.91 1010.01 1010.67 1010.87 1011.35 1011.43 1010.97
1024.34 1024.03 1023.71 1023.32 1022.84 1022.36 1021.79 1021.24 1020.78 1020.27 1019.66 1019.53 1020.13 1020.38 1020.03 1019.18 1018.39 1019.12 1020.72 1022.77 1023.17 1022.46 1021.68 1021.23 1021.12 1020.82 1020.54 1020.48 1020.51 1020.34 1019.99 1019.19 1018.96 1018.58 1018.38 1017.80 1015.76 1012.82 1011.73 1010.91 1009.29 1009.82 1010.39 1011.40 1011.77 1011.47 1010.92
1024.46 1024.17 1023.83 1023.44 1022.94 1022.44 1021.87 1021.21 1020.65 1020.22 1019.68 1019.73 1020.70 1021.33 1020.62 1019.80 1019.60 1021.14 1022.91 1023.34 1022.78 1021.99 1021.68 1021.54 1021.48 1021.58 1021.47 1021.25 1020.79 1020.69 1020.06 1019.04 1018.68 1018.30 1018.20 1017.96 1017.11 1013.32 1011.99 1010.64 1010.41 1010.94 1010.44 1010.39 1010.52 1010.84 1010.53
1024.62 1024.33 1023.94 1023.52 1023.06 1022.54 1021.97 1021.27 1020.48 1020.13 1019.97 1020.04 1021.76 1022.65 1021.41 1020.73 1021.95 1023.45 1024.01 1023.66 1022.84 1022.19 1021.99 1022.08 1022.03 1022.16 1021.95 1021.69 1021.27 1020.87 1020.16 1019.48 1018.61 1018.44 1018.39 1018.08 1017.09 1015.16 1012.81 1011.25 1010.78 1010.78 1010.41 1010.27 1010.32 1011.00 1010.77
1024.73 1024.48 1024.10 1023.69 1023.10 1022.71 1022.05 1021.31 1020.48 1019.95 1019.95 1021.01 1023.17 1023.46 1022.27 1021.73 1024.21 1024.95 1024.43 1023.96 1023.20 1022.61 1022.43 1022.42 1022.30 1022.26 1022.12 1022.05 1021.50 1020.63 1019.92 1018.95 1018.58 1018.29 1018.48 1018.36 1017.28 1015.67 1013.19 1012.23 1011.30 1011.24 1010.84 1010.46 1010.31 1010.66 1011.38
1024.88 1024.64 1024.34 1023.85 1023.40 1022.89 1022.12 1021.37 1020.69 1020.08 1020.15 1021.25 1023.88 1024.81 1024.64 1025.08 1025.70 1025.44 1025.15 1024.81 1023.98 1022.94 1022.76 1022.74 1022.74 1022.29 1022.05 1021.68 1021.20 1020.46 1019.94 1019.00 1018.97 1018.72 1018.80 1018.76 1018.05 1017.01 1016.03 1014.87 1014.24 1013.86 1012.95 1012.17 1011.85 1012.65 1013.25
1025.07 1024.93 1024.60 1024.06 1023.79 1023.03 1022.28 1021.52 1020.75 1020.32 1020.37 1021.46 1024.54 1026.29 1026.59 1027.19 1026.70 1026.16 1025.65 1025.55 1024.82 1023.99 1023.25 1023.08 1022.57 1022.31 1022.03 1021.54 1021.10 1020.57 1020.10 1019.67 1019.22 1019.07 1019.13 1018.96 1018.23 1017.68 1017.13 1016.15 1015.20 1015.36 1015.93 1015.96 1015.49 1015.92 1015.59
1025.38 1025.24 1024.82 1024.45 1024.02 1023.33 1022.57 1021.88 1021.13 1020.59 1020.65 1022.60 1024.94 1026.18 1026.86 1027.35 1027.13 1026.71 1026.51 1026.02 1025.46 1024.79 1024.14 1023.43 1023.35 1022.09 1021.69 1021.60 1021.44 1020.70 1020.34 1020.07 1019.91 1019.09 1019.00 1018.60 1018.05 1017.56 1016.83 1016.57 1016.01 1016.74 1018.00 1017.74 1017.68 1017.93 1017.76
1025.69 1025.50 1025.09 1024.79 1024.34 1023.76 1023.15 1022.39 1021.71 1021.18 1021.03 1023.23 1024.90 1025.49 1026.21 1027.96 1027.67 1027.25 1027.39 1026.64 1025.73 1025.24 1024.06 1023.41 1023.01 1022.24 1021.43 1021.10 1020.85 1020.51 1020.36 1020.35 1020.30 1019.69 1019.21 1018.73 1018.37 1017.89 1017.82 1017.19 1016.61 1017.45 1020.55 1020.65 1020.95 1020.52 1020.01
1025.99 1025.68 1025.43 1025.18 1024.77 1024.29 1023.80 1023.30 1022.77 1022.35 1022.22 1023.73 1025.15 1025.80 1027.09 1028.63 1028.00 1028.20 1027.35 1026.55 1025.86 1025.27 1024.89 1023.37 1022.27 1021.81 1021.11 1020.44 1020.23 1020.26 1020.48 1020.19 1020.09 1019.65 1018.95 1018.74 1018.27 1018.29 1018.64 1018.03 1019.93 1022.76 1022.38 1021.85 1021.64 1021.55 1021.12
1026.23 1026.02 1025.81 1025.59 1025.31 1024.89 1024.52 1024.05 1023.71 1023.35 1023.25 1024.02 1025.11 1025.86 1027.20 1028.48 1028.50 1027.82 1027.03 1026.61 1025.66 1024.92 1024.54 1023.98 1022.80 1022.06 1020.97 1020.67 1020.98 1021.31 1021.46 1021.08 1020.22 1019.90 1019.16 1018.70 1018.55 1019.80 1020.70 1021.34 1022.91 1022.41 1022.52 1022.51 1022.36 1022.45 1022.00
1026.57 1026.43 1026.20 1026.01 1025.77 1025.44 1025.14 1024.63 1024.35 1024.05 1023.89 1024.61 1025.57 1025.80 1026.77 1027.93 1028.51 1028.01 1027.35 1026.86 1026.79 1026.22 1024.94 1023.90 1022.65 1021.97 1021.32 1021.93 1022.46 1024.04 1024.06 1023.77 1022.85 1021.17 1020.31 1019.97 1019.45 1020.62 1021.84 1022.97 1024.83 1025.23 1023.58 1022.48 1022.14 1022.76 1022.93
1026.96 1026.82 1026.64 1026.43 1026.23 1025.96 1025.74 1025.27 1025.11 1024.78 1024.72 1025.13 1025.99 1025.95 1026.56 1028.01 1028.09 1027.64 1027.25 1027.18 1026.71 1026.55 1026.27 1025.10 1024.44 1023.29 1023.15 1024.16 1024.97 1025.89 1025.88 1025.58 1025.36 1024.86 1023.56 1022.65 1022.54 1023.02 1023.58 1024.27 1026.13 1026.00 1024.29 1022.26 1022.96 1025.96 1024.55
1027.25 1027.14 1027.08 1026.84 1026.65 1026.46 1026.28 1025.81 1025.72 1025.43 1025.31 1025.58 1026.69 1026.39 1026.60 1027.72 1027.89 1027.29 1026.83 1026.67 1026.34 1026.45 1026.84 1025.51 1025.29 1025.09 1025.30 1026.00 1026.91 1027.75 1027.65 1027.39 1027.09 1026.90 1026.21 1025.20 1025.38 1025.25 1025.24 1025.61 1027.23 1027.04 1025.75 1025.35 1027.58 1026.76 1025.66
1027.46 1027.44 1027.45 1027.28 1027.08 1026.95 1026.76 1026.41 1026.24 1025.98 1025.87 1025.87 1027.13 1027.09 1026.99 1027.50 1028.03 1027.35 1026.51 1025.96 1025.99 1025.82 1026.35 1026.24 1026.95 1026.95 1027.20 1027.74 1028.36 1028.59 1028.89 1028.65 1028.24 1027.94 1027.47 1026.96 1027.34 1027.22 1027.06 1028.41 1029.01 1028.48 1028.03 1027.49 1027.05 1026.55 1026.05
Thickness
5579 5581 5582 5584 5587 5588 5591 5594 5596 5598 5601 5604 5606 5608 5609 5611 5613 5614 5615 5615 5614 5613 5611 5609 5608 5608 5607 5609 5619 5636 5637 5636 5634 5632 5628 5626 5626 5626 5622 5625 5629 5626 5633 5639 5646 5644 5648
5576 5578 5579 5581 5584 5586 5588 5591 5594 5596 5599 5601 5604 5605 5607 5608 5610 5611 5611 5611 5609 5607 5604 5602 5600 5598 5595 5602 5623 5625 5622 5621 5620 5618 5618 5618 5617 5617 5617 5617 5615 5622 5625 5626 5633 5637 5639
5572 5575 5576 5578 5581 5583 5586 5589 5592 5594 5596 5599 5601 5602 5604 5605 5606 5606 5606 5606 5605 5602 5599 5596 5593 5589 5583 5595 5608 5607 5607 5608 5609 5608 5607 5608 5610 5608 5607 5604 5608 5611 5608 5615 5623 5626 5627
5569 5571 5573 5576 5578 5581 5584 5587 5590 5592 5593 5596 5597 5599 5600 5601 5601 5601 5602 5602 5602 5599 5594 5589 5584 5579 5577 5597 5596 5595 5596 5597 5599 5597 5596 5600 5599 5595 5594 5595 5590 5593 5597 5594 5612 5615 5621
5565 5567 5570 5573 5576 5578 5581 5584 5587 5589 5591 5592 5594 5595 5595 5595 5596 5597 5596 5597 5597 5597 5588 5581 5573 5567 5572 5587 5584 5585 5583 5584 5590 5590 5588 5589 5586 5579 5577 5563 5559 5562 5560 5578 5590 5607 5611
5561 5563 5566 5570 5572 5576 5579 5582 5584 5586 5587 5589 5590 5590 5590 5591 5592 5592 5590 5590 5587 5583 5575 5569 5564 5556 5567 5564 5567 5564 5572 5577 5576 5576 5572 5567 5561 5555 5541 5539 5540 5543 5549 5556 5572 5587 5591
5557 5560 5563 5566 5570 5573 5576 5579 5580 5582 5583 5584 5585 5585 5585 5587 5587 5588 5586 5579 5567 5564 5561 5556 5547 5544 5549 5551 5551 5550 5554 5558 5557 5553 5544 5548 5539 5533 5536 5541 5548 5547 5547 5546 5555 5566 5566
5553 5556 5559 5563 5566 5570 5572 5575 5576 5577 5578 5580 5580 5581 5581 5582 5582 5580 5576 5563 5553 5544 5533 5542 5537 5533 5537 5534 5528 5525 5530 5521 5518 5507 5510 5511 5517 5530 5532 5531 5532 5533 5538 5551 5547 5551 5546
5550 5553 5557 5560 5563 5567 5569 5570 5572 5573 5574 5574 5575 5575 5578 5577 5576 5569 5559 5552 5545 5539 5518 5529 5529 5521 5513 5510 5496 5492 5495 5488 5487 5482 5482 5477 5501 5505 5507 5507 5514 5522 5528 5533 5530 5537 5535
5546 5551 5554 5557 5561 5563 5564 5566 5568 5569 5569 5570 5570 5571 5573 5573 5564 5554 5550 5546 5539 5531 5509 5512 5501 5491 5489 5484 5472 5465 5462 5455 5453 5453 5451 5461 5484 5481 5476 5486 5502 5508 5525 5521 5523 5521 5511
5544 5548 5551 5554 5557 5559 5560 5562 5564 5565 5564 5565 5566 5565 5563 5562 5553 5546 5545 5539 5532 5517 5451 5486 5473 5471 5456 5445 5433 5430 5424 5419 5412 5415 5416 5441 5444 5446 5449 5470 5482 5501 5503 5508 5509 5513 5505
5541 5545 5548 5551 5553 5555 5557 5558 5560 5560 5560 5562 5561 5560 5556 5552 5545 5545 5540 5532 5518 5477 5414 5460 5456 5437 5422 5413 5404 5399 5396 5387 5386 5381 5398 5406 5413 5416 5441 5463 5470 5484 5482 5489 5493 5490 5475
5537 5541 5544 5547 5549 5552 5553 5555 5556 5557 5557 5557 5556 5555 5551 5545 5536 5540 5532 5518 5472 5406 5453 5436 5425 5412 5401 5385 5385 5372 5365 5356 5334 5328 5358 5373 5392 5410 5424 5440 5463 5469 5463 5451 5457 5474 5480
5534 5538 5540 5542 5545 5548 5549 5551 5552 5553 5553 5553 5551 5549 5546 5542 5539 5533 5517 5486 5405 5434 5427 5424 5412 5401 5379 5371 5364 5360 5351 5341 5334 5331 5331 5339 5356 5386 5402 5412 5447 5459 5456 5452 5474 5489 5501
5530 5533 5536 5539 5541 5543 5545 5547 5548 5549 5549 5548 5545 5540 5537 5535 5535 5526 5493 5409 5403 5423 5417 5401 5398 5384 5373 5365 5349 5344 5345 5332 5330 5348 5338 5350 5375 5399 5400 5401 5437 5441 5440 5482 5475 5477 5482
5526 5529 5532 5534 5536 5539 5542 5544 5545 5546 5547 5543 5533 5526 5526 5525 5524 5503 5472 5447 5434 5422 5413 5401 5382 5378 5363 5348 5340 5333 5337 5330 5350 5358 5355 5359 5359 5399 5401 5408 5435 5448 5466 5450 5458 5466 5478
5521 5523 5526 5528 5531 5535 5538 5541 5543 5543 5543 5539 5525 5511 5515 5515 5506 5474 5427 5433 5427 5421 5411 5400 5386 5373 5361 5348 5345 5332 5338 5347 5353 5360 5361 5351 5358 5400 5411 5422 5434 5437 5451 5464 5476 5486 5493
5515 5517 5520 5524 5527 5530 5534 5538 5541 5541 5538 5534 5510 5486 5506 5502 5466 5436 5429 5429 5422 5418 5407 5393 5384 5370 5354 5352 5348 5339 5344 5349 5365 5364 5358 5356 5365 5379 5411 5433 5441 5448 5459 5474 5464 5478 5487
5509 5511 5515 5519 5523 5526 5530 5534 5538 5539 5536 5522 5496 5486 5496 5491 5426 5418 5428 5421 5418 5414 5406 5394 5385 5376 5365 5353 5355 5357 5359 5371 5369 5370 5363 5364 5378 5389 5428 5437 5452 5450 5462 5483 5491 5489 5489
5504 5507 5509 5514 5517 5521 5527 5531 5534 5536 5533 5519 5488 5457 5466 5458 5438 5433 5419 5408 5407 5414 5408 5398 5385 5380 5370 5371 5370 5371 5368 5378 5372 5376 5373 5367 5373 5384 5393 5407 5417 5419 5436 5467 5486 5474 5472
5499 5501 5503 5508 5511 5518 5523 5527 5531 5533 5529 5516 5481 5460 5454 5423 5431 5424 5416 5401 5402 5402 5406 5397 5392 5391 5385 5380 5378 5371 5370 5373 5373 5374 5369 5369 5378 5388 5394 5410 5414 5414 5413 5421 5428 5435 5447
5493 5495 5499 5502 5507 5513 5519 5522 5527 5529 5525 5502 5475 5462 5452 5437 5432 5420 5406 5399 5397 5397 5399 5394 5387 5397 5387 5390 5389 5389 5385 5382 5378 5385 5384 5386 5398 5406 5413 5423 5428 5416 5405 5416 5417 5414 5423
5488 5490 5494 5498 5502 5508 5512 5517 5521 5523 5522 5495 5479 5472 5456 5434 5426 5418 5399 5395 5398 5393 5405 5407 5396 5391 5394 5402 5399 5398 5399 5390 5386 5392 5391 5398 5403 5415 5419 5426 5449 5429 5388 5397 5396 5398 5407
5482 5486 5490 5493 5497 5501 5504 5508 5511 5512 5512 5496 5480 5468 5443 5430 5425 5410 5407 5399 5396 5397 5394 5408 5413 5400 5410 5413 5412 5411 5405 5403 5403 5407 5407 5404 5419 5415 5416 5421 5392 5377 5383 5394 5398 5398 5403
5477 5481 5484 5487 5491 5495 5497 5501 5502 5502 5501 5493 5480 5468 5445 5423 5419 5420 5415 5405 5403 5400 5403 5405 5411 5412 5414 5414 5414 5410 5394 5401 5409 5413 5416 5417 5416 5389 5384 5397 5389 5398 5391 5392 5394 5395 5397
5472 5475 5479 5482 5485 5488 5491 5495 5495 5496 5495 5489 5476 5469 5451 5422 5424 5416 5408 5400 5389 5389 5397 5409 5413 5410 5417 5404 5398 5381 5387 5391 5384 5407 5415 5417 5422 5396 5394 5372 5370 5369 5385 5399 5405 5408 5392
5467 5470 5473 5476 5480 5483 5485 5489 5489 5490 5488 5484 5473 5469 5454 5424 5427 5422 5412 5399 5396 5386 5379 5391 5399 5407 5405 5391 5374 5378 5381 5380 5374 5374 5382 5397 5392 5389 5394 5384 5375 5369 5388 5416 5401 5376 5384
5463 5465 5467 5471 5475 5478 5480 5483 5483 5484 5483 5480 5467 5465 5455 5427 5431 5432 5425 5413 5403 5391 5371 5394 5395 5397 5393 5387 5373 5356 5362 5365 5362 5367 5366 5381 5360 5378 5378 5383 5370 5368 5384 5381 5360 5367 5381
5458 5460 5463 5466 5470 5472 5475 5478 5478 5479 5479 5476 5464 5460 5455 5440 5434 5432 5430 5425 5419 5413 5391 5385 5385 5385 5366 5367 5359 5358 5363 5355 5361 5364 5371 5372 5371 5374 5377 5364 5358 5362 5365 5368 5372 5377 5380